Probability
0 0 0 0 0 0 0 0 0 0 0 0 0 0 0 0 0 0 0 1 3 3 1 0 1 2 2 2 3 2 1 0 0 0 0 0 0 0 0 0 0 0 0
0 0 0 0 0 0 0 0 0 0 0 0 0 0 0 0 0 0 0 1 2 1 0 0 0 1 1 1 2 2 1 0 0 0 0 0 0 0 0 0 0 0 0
0 0 0 0 0 0 0 0 0 0 0 0 0 0 0 0 0 0 0 0 0 0 0 0 0 0 0 0 1 1 0 0 0 0 0 0 0 0 0 0 0 0 0
0 0 0 0 0 0 0 0 0 0 0 0 0 0 0 0 0 0 0 0 0 0 0 0 0 0 0 0 0 0 0 0 0 0 0 0 0 0 0 0 0 0 0
0 0 0 0 0 0 0 0 0 0 0 0 0 0 0 0 0 0 0 0 0 0 0 0 0 0 0 0 0 0 0 0 0 0 0 0 0 0 0 0 0 0 0
0 0 0 0 0 0 0 0 0 0 0 0 0 0 0 0 0 0 0 0 0 0 0 0 0 0 0 0 0 0 0 0 0 0 0 0 0 0 0 0 0 0 0
0 0 0 0 0 0 0 0 0 0 0 0 0 0 0 0 0 0 0 0 0 0 0 0 0 0 0 0 0 0 0 0 0 0 0 0 0 0 0 0 0 0 0
0 0 0 0 0 0 0 0 0 0 0 0 0 0 0 0 0 0 1 1 0 0 0 0 0 0 0 0 0 0 0 0 0 0 0 0 0 0 0 0 0 0 0
0 0 0 0 0 0 0 0 0 0 0 0 0 0 0 0 0 1 2 1 0 0 0 0 0 0 0 0 0 0 0 0 0 0 0 0 0 0 0 0 0 0 0
1 0 0 0 0 0 0 0 0 0 0 0 0 0 0 0 0 1 2 1 0 0 0 0 0 0 0 0 0 0 0 0 0 0 0 0 0 0 0 0 0 0 0
2 1 0 0 0 0 0 0 0 0 0 0 0 1 0 0 0 1 1 0 0 0 0 0 0 0 0 0 0 0 0 0 0 0 0 0 0 0 0 0 0 0 0
3 2 1 0 0 0 0 0 0 0 0 0 0 0 0 0 0 0 0 0 0 0 0 0 0 0 0 0 0 0 0 0 0 0 0 0 0 0 0 0 0 0 0
3 2 1 0 0 0 0 0 0 0 0 0 0 0 0 0 0 0 0 0 0 0 0 0 0 0 0 0 0 0 0 0 0 0 0 0 0 0 0 0 0 0 0
3 2 1 0 0 0 0 0 0 0 0 0 0 0 0 0 0 0 0 0 0 0 0 0 0 0 0 0 0 0 0 0 0 0 0 0 0 0 0 0 0 0 0
4 3 1 0 0 1 1 1 1 0 1 1 0 0 0 0 0 0 0 0 0 0 0 0 0 0 0 0 0 0 0 0 0 0 0 0 0 0 0 0 0 0 0
6 6 3 1 1 2 3 2 2 1 2 2 1 0 0 0 0 0 0 0 0 0 0 0 0 0 0 0 0 0 0 0 0 0 0 0 0 0 0 0 0 0 0
9 8 5 3 3 5 4 4 3 2 2 3 2 1 0 0 0 0 0 0 0 0 0 0 0 0 0 0 0 0 0 0 0 0 0 0 0 0 1 1 0 0 0
13 13 9 5 4 6 7 5 4 2 2 3 4 3 1 0 1 1 0 0 0 0 0 0 0 0 0 0 0 0 0 0 0 0 0 0 0 0 1 1 1 0 0
17 17 14 9 7 8 8 7 5 4 3 4 5 4 2 1 2 1 0 0 0 0 0 0 0 0 0 0 0 0 0 0 0 0 0 0 0 0 1 1 1 0 0
19 20 19 16 14 12 10 7 5 4 4 5 5 3 1 1 2 2 0 0 0 0 0 0 0 0 0 0 0 0 0 0 0 0 0 0 0 0 0 1 1 1 1
22 23 24 22 20 17 13 8 5 4 4 5 5 3 1 1 2 1 0 0 1 0 0 0 0 0 0 0 0 0 0 0 0 0 1 1 0 0 0 0 2 4 5
24 24 25 25 23 20 15 9 6 5 4 4 4 3 1 0 1 1 0 0 0 0 0 0 0 0 0 0 0 0 0 0 0 0 1 2 2 2 1 1 2 5 6
22 22 23 24 25 23 18 11 8 7 4 3 4 3 1 0 0 0 0 0 0 0 0 0 0 1 1 0 0 0 0 0 0 0 1 2 3 3 3 2 2 3 4
20 20 21 25 28 28 23 18 14 9 5 2 2 2 1 0 0 0 0 0 0 0 0 1 1 2 2 1 1 2 2 2 1 0 1 2 3 3 3 3 2 3 4
19 19 21 25 29 31 29 27 21 12 5 3 2 2 1 0 0 0 0 0 0 1 1 2 3 4 4 3 3 3 5 5 4 2 3 4 4 4 4 4 3 3 4
18 19 21 24 28 32 32 31 26 16 8 4 3 3 2 1 0 0 0 0 0 1 2 3 5 5 5 5 4 4 6 7 6 5 5 4 4 5 6 5 4 4 3
Wind_Speed
5 7 8 6 7 8 10 10 11 11 12 12 12 12 12 12 13 13 12 13 13 13 13 13 13 13 13 13 13 13 13 12 12 12 12 12 12 11 11 11 11 11 13
7 9 9 7 8 9 10 11 12 11 11 11 11 12 12 12 12 12 12 12 12 13 13 12 12 12 13 12 12 12 12 11 11 11 11 11 11 11 9 8 6 10 12
8 9 10 9 8 9 10 11 11 11 11 11 11 11 11 11 12 12 12 11 11 12 12 12 12 12 12 12 12 11 11 10 10 10 9 9 10 10 9 10 11 11 11
8 9 9 10 9 9 10 10 10 11 11 10 10 10 11 11 11 11 11 11 11 11 12 12 12 12 11 11 11 11 10 10 9 8 6 8 9 11 10 10 11 11 11
8 8 11 9 9 9 9 10 10 10 10 10 10 10 10 10 10 10 11 10 10 11 11 11 12 11 11 11 10 10 9 9 7 6 6 7 8 11 10 10 11 11 10
8 8 12 8 8 9 9 9 9 9 9 9 9 10 10 9 9 10 10 11 11 11 11 11 11 11 10 10 10 9 9 8 8 5 6 6 8 10 10 10 10 10 10
8 8 12 9 9 9 9 9 8 8 8 9 9 10 10 9 9 10 10 11 10 11 10 10 10 9 9 9 8 8 8 5 3 5 6 6 8 9 9 9 10 10 10
8 9 11 10 8 8 8 8 8 7 8 8 9 9 10 9 9 10 10 10 10 10 10 9 9 9 8 8 8 8 7 5 5 5 5 7 10 8 8 9 9 9 9
7 8 8 9 9 9 8 8 7 7 7 8 8 8 9 9 9 9 9 9 9 9 9 9 8 8 7 7 7 7 5 4 3 4 5 6 9 8 8 8 8 8 8
6 6 7 7 7 7 9 8 7 7 7 7 7 8 8 9 9 9 9 8 8 8 8 8 8 7 7 7 7 6 6 6 4 5 4 8 9 7 7 7 8 8 8
6 5 5 6 6 6 6 9 8 7 7 7 7 8 6 6 7 7 9 8 8 8 8 8 8 7 7 8 7 6 6 4 4 3 4 10 7 7 6 7 7 8 8
7 6 5 5 6 6 5 6 4 5 6 4 4 5 4 4 4 5 9 8 8 8 8 7 7 8 7 6 8 8 4 3 2 3 6 9 7 6 6 6 7 8 8
7 6 6 5 4 4 4 3 3 2 4 4 5 4 3 3 4 4 4 6 6 8 6 7 7 4 3 2 2 3 2 2 1 2 7 9 7 7 7 6 7 8 9
7 6 5 6 4 3 2 3 3 3 3 3 4 3 3 2 2 3 2 3 3 3 3 3 2 3 2 3 2 2 2 2 1 2 6 9 6 7 7 7 7 8 9
7 6 6 5 5 4 3 2 2 2 3 4 3 3 2 2 3 3 2 1 2 3 3 3 3 3 3 3 3 3 2 1 2 2 4 9 7 7 8 8 8 9 9
7 7 6 6 6 5 4 2 2 2 2 2 3 3 2 2 2 2 3 2 2 2 2 2 3 3 2 2 2 2 3 3 2 2 2 7 9 8 8 8 9 9 9
8 7 7 7 6 5 4 4 3 3 3 3 3 3 3 3 3 2 2 2 2 2 3 3 3 2 3 3 3 2 2 3 2 2 3 3 6 9 9 8 8 9 9
8 8 7 6 7 6 4 3 3 2 3 3 3 3 3 2 3 2 2 2 2 3 3 2 3 2 2 2 2 2 2 2 3 3 4 4 3 4 8 9 7 7 8
8 8 8 7 7 7 6 4 4 3 2 3 3 3 3 3 3 3 2 2 3 3 2 3 2 2 2 2 2 3 3 2 2 4 3 4 3 4 4 8 9 7 8
9 9 9 8 8 7 6 5 3 3 4 3 3 3 3 3 4 3 3 3 3 3 2 2 2 2 2 3 3 1 2 2 3 3 4 3 3 5 5 4 6 8 9
10 10 9 9 8 7 5 5 5 4 4 4 4 4 5 4 4 4 3 3 4 3 3 4 3 4 4 3 2 2 3 4 4 3 4 3 4 4 4 4 5 4 5
11 11 11 10 10 9 6 4 3 3 3 3 3 3 5 5 5 5 4 4 4 3 4 4 4 4 3 3 3 3 3 3 4 4 3 4 4 4 5 6 5 4 5
12 12 10 10 10 9 8 6 4 4 4 4 4 4 4 5 5 5 5 5 4 5 4 5 5 6 4 4 4 4 3 2 1 3 4 4 4 3 4 4 5 5 5
12 12 11 11 10 9 9 8 8 6 5 4 4 3 4 4 4 4 5 5 5 4 4 6 6 5 5 4 4 4 5 3 3 2 3 4 4 4 4 4 4 4 5
12 11 11 11 10 10 9 9 8 7 5 4 4 4 4 4 4 4 4 4 4 4 4 5 4 5 5 5 4 4 4 4 6 5 4 3 3 4 4 4 4 4 4
11 11 10 11 10 10 10 10 9 8 6 5 5 4 4 4 4 4 5 4 4 4 4 5 5 6 5 5 5 4 4 4 4 4 5 4 4 3 3 2 3 3 3
Wind_Direction
109 101 101 118 113 109 109 110 110 109 111 115 116 116 117 119 120 121 121 121 120 118 119 119 118 115 115 116 116 115 114 115 117 117 118 118 119 122 125 131 135 115 119
112 108 107 111 111 109 108 112 113 112 111 115 119 119 120 122 123 121 121 123 124 124 122 118 119 117 115 117 117 115 116 118 119 122 126 124 123 127 130 125 101 111 128
116 114 118 108 108 105 107 111 111 111 109 113 120 121 122 123 123 122 122 124 124 125 125 123 123 121 121 121 119 118 120 122 125 133 149 134 126 128 127 120 114 122 127
115 114 104 107 109 107 108 112 112 111 110 110 117 122 122 121 121 122 122 125 127 127 126 127 128 126 125 122 122 123 124 124 132 161 157 127 130 127 130 129 128 129 130
110 110 104 111 112 114 113 116 115 113 112 111 114 122 121 117 122 125 126 129 128 125 125 127 126 126 126 125 126 128 128 129 150 191 120 118 118 125 132 133 132 133 134
122 119 108 111 114 117 116 118 117 115 113 112 112 115 115 112 123 127 128 129 126 124 124 124 126 126 126 125 128 130 132 146 184 134 118 123 116 128 134 137 136 137 137
124 115 113 109 112 119 119 117 113 113 115 117 117 114 113 113 113 119 118 120 121 122 122 123 125 128 130 129 129 133 137 168 166 124 126 117 109 129 138 140 141 140 140
123 119 117 123 117 117 122 121 120 119 119 119 121 120 121 120 115 115 115 118 120 120 122 124 127 129 132 131 132 133 146 201 152 135 129 116 113 133 139 144 146 146 146
123 124 127 135 135 129 118 125 121 125 126 119 120 122 122 121 118 116 117 119 120 122 123 123 125 129 132 133 138 144 157 228 195 138 135 114 124 141 147 150 152 152 153
126 126 130 133 127 138 135 128 123 118 117 116 119 125 127 132 131 130 132 122 124 127 126 126 128 129 132 137 141 151 170 219 181 145 130 117 136 152 156 157 159 159 160
140 138 133 130 131 133 129 129 140 135 130 138 132 132 149 141 132 142 116 125 133 132 129 129 131 134 144 149 151 162 197 214 139 132 111 113 147 161 168 169 168 168 170
150 148 140 141 139 135 126 133 146 146 136 143 124 132 131 115 114 112 120 134 137 134 135 134 142 166 192 158 159 189 201 179 158 145 115 133 160 172 179 184 181 178 180
146 149 155 146 139 135 136 140 134 132 131 134 120 121 120 135 135 133 139 148 151 158 156 150 176 177 162 136 168 179 178 183 157 145 126 148 171 183 189 190 185 185 187
149 156 153 146 147 146 133 132 154 146 134 126 127 139 132 128 129 120 129 135 150 148 149 154 151 145 152 163 180 173 178 208 168 150 129 153 181 196 195 194 192 193 194
161 161 157 157 153 158 160 184 143 136 138 133 139 143 153 152 143 132 130 140 148 140 157 168 164 154 172 183 195 182 192 199 214 205 136 158 183 198 201 199 199 200 201
173 170 165 171 166 172 174 174 162 153 142 146 156 149 167 159 140 151 157 157 154 160 150 174 174 175 197 193 204 195 212 204 196 220 195 165 181 198 206 207 207 206 204
178 177 175 179 176 178 184 184 175 173 159 169 155 160 183 180 157 178 160 180 162 161 169 193 186 191 200 199 203 208 214 227 212 222 226 215 183 187 198 206 212 211 208
181 179 187 188 176 180 186 193 182 176 165 174 173 164 183 185 183 198 193 188 171 197 192 187 210 196 201 219 214 230 218 207 225 230 227 217 216 196 185 192 204 210 213
186 184 186 190 184 185 181 189 193 183 194 189 184 187 180 191 192 213 206 175 203 203 207 222 179 214 206 222 232 222 236 226 227 232 236 226 211 221 202 170 190 204 214
188 188 189 189 187 186 184 187 196 197 200 200 196 197 197 197 197 216 204 193 217 207 207 222 224 231 229 224 249 233 242 231 232 230 236 218 209 215 218 203 190 196 204
188 188 191 195 185 188 190 195 193 194 198 200 206 200 204 207 198 217 231 193 218 212 222 222 228 217 223 212 230 228 223 222 220 221 231 239 219 218 217 216 225 222 193
190 190 191 195 192 196 191 198 202 206 211 206 214 199 213 211 212 208 220 222 215 216 220 227 231 244 234 212 236 240 231 208 205 216 215 222 234 226 220 217 219 222 240
192 193 194 196 194 199 193 194 192 196 217 202 204 201 210 214 217 229 223 230 225 230 220 225 226 232 240 231 234 255 266 258 224 200 217 224 227 233 234 230 228 225 227
193 190 193 193 196 194 197 203 204 209 213 209 207 196 199 211 221 222 230 234 236 243 237 236 222 235 240 243 234 241 260 288 274 252 219 214 219 234 243 240 232 221 226
189 187 186 188 192 193 200 202 210 218 218 208 201 194 212 205 215 226 232 236 234 241 245 255 246 243 238 243 244 242 242 238 247 261 262 246 233 233 231 237 242 235 225
185 183 182 184 190 192 197 203 210 216 217 215 212 205 211 203 206 211 226 230 236 246 242 246 248 238 244 250 255 251 247 249 252 254 263 261 254 243 235 245 249 242 232